Lid_Strength_Index
3 3 4 4 4 5 5 5 5 6 5 5 5 4 4 4 4 5 7 7 6 3 4 5 6 6 6 6 5 6 10 10 9 9 8 6 8 6 5 6 5 5 4 3 2
2 3 3 3 4 4 5 5 5 5 4 5 4 4 3 3 5 6 5 5 5 3 6 7 8 7 8 8 7 8 10 9 7 8 8 8 8 7 7 7 7 6 4 4 4
2 2 3 3 4 4 5 5 5 4 4 4 4 4 3 4 7 6 1 3 3 3 5 6 7 8 9 8 8 9 10 8 8 8 8 9 8 7 8 9 7 7 6 5 5
2 2 2 3 3 4 4 5 5 4 4 5 4 4 3 4 9 5 1 2 3 3 5 7 8 9 10 10 8 10 9 9 9 8 9 9 8 9 8 8 7 6 6 5 6
2 2 2 3 3 4 4 5 5 5 5 4 4 4 4 7 7 3 1 2 3 4 7 8 9 9 10 9 9 10 10 9 9 9 9 9 10 10 9 7 6 6 6 6 6
3 2 3 3 3 4 4 5 5 5 5 5 5 4 5 8 5 5 4 3 4 5 6 7 8 8 9 9 9 9 9 9 9 9 9 11 10 10 9 7 7 7 7 7 6
2 3 3 3 3 3 5 5 5 5 5 5 4 5 6 5 4 4 5 5 4 5 6 5 6 7 8 9 8 9 11 9 9 9 10 9 11 11 8 7 8 8 7 7 6
2 2 3 3 4 4 4 5 5 5 5 4 4 5 7 4 4 5 5 5 4 5 5 5 5 7 8 7 8 10 9 12 8 9 9 10 12 9 7 8 8 8 7 7 6
2 2 3 4 4 5 5 5 5 6 4 5 4 5 6 5 6 4 4 6 5 5 5 5 6 8 8 10 11 10 12 11 10 8 9 9 11 9 8 8 9 8 7 7 7
2 2 3 4 5 5 5 6 6 5 4 3 4 7 6 8 5 5 3 5 6 6 7 7 8 9 9 11 14 12 11 10 11 9 9 10 11 9 8 8 9 8 7 7 7
1 2 2 4 5 6 7 8 8 6 5 6 5 6 6 5 4 6 3 5 6 7 10 8 10 11 10 9 9 10 11 12 10 9 10 11 11 10 9 8 8 8 8 8 7
1 2 2 3 5 5 6 10 7 7 6 5 6 6 6 6 8 6 5 8 8 10 9 9 12 9 9 9 10 11 12 12 10 9 10 11 11 9 9 9 8 8 8 6 6
1 1 3 4 5 6 7 8 4 5 7 6 5 6 6 6 8 8 6 8 9 10 10 11 10 9 11 11 11 12 12 12 12 10 10 11 12 10 8 9 8 7 7 7 7
1 2 3 4 7 7 9 5 4 4 10 8 10 9 8 7 9 6 6 7 9 11 10 10 9 10 11 12 11 13 10 11 12 13 15 10 16 11 9 8 8 8 7 7 7
1 3 4 3 7 9 6 4 4 4 18 8 10 6 7 9 9 9 7 8 11 10 10 11 10 11 12 11 10 11 9 11 11 13 13 13 14 12 8 8 7 8 8 7 7
2 3 3 5 6 6 5 4 5 12 17 10 9 10 10 9 9 8 9 7 7 9 9 9 8 9 10 9 10 9 11 11 12 13 17 13 12 13 10 10 9 9 8 8 8
2 3 3 2 6 4 3 6 13 16 8 10 11 9 9 10 10 9 9 10 10 12 12 10 10 9 10 11 9 10 12 16 16 15 16 11 12 11 9 9 9 8 8 8 8
2 3 3 4 3 3 5 10 17 10 9 9 9 9 10 9 9 10 10 11 9 10 12 14 15 10 9 11 11 11 11 15 19 17 14 10 14 11 8 8 8 8 9 9 10
3 6 6 4 4 4 8 14 12 10 7 9 9 11 10 10 10 10 10 10 9 8 13 14 14 10 10 9 10 12 13 10 14 14 16 14 11 8 8 8 9 9 9 11 11
6 7 7 4 3 6 11 13 10 6 8 7 11 9 10 9 11 10 10 9 10 9 10 12 15 11 11 10 10 11 9 14 13 18 18 14 12 15 13 12 11 11 10 11 11
5 9 7 4 4 9 12 10 8 6 6 7 8 9 9 9 10 10 11 10 10 10 9 10 12 13 12 13 13 11 12 11 11 12 17 18 17 13 14 13 13 11 11 11 12
7 12 6 4 11 10 10 8 6 8 7 7 8 8 10 10 11 11 11 11 9 9 12 10 12 15 13 10 8 9 10 10 14 14 13 13 15 11 12 12 12 13 12 12 12
10 11 6 6 12 10 7 7 7 8 8 9 9 8 9 10 12 11 11 9 9 10 11 10 13 16 13 10 8 10 9 9 9 11 15 18 15 11 12 13 13 14 12 12 13
9 13 10 10 9 8 9 9 8 6 8 8 8 9 10 11 9 11 11 10 9 9 9 8 11 12 14 13 10 12 10 9 10 14 13 14 15 14 14 14 14 14 13 13 14
7 9 7 13 12 9 8 8 9 10 8 8 9 9 11 12 11 12 11 11 9 8 8 9 12 11 11 11 10 10 11 11 13 12 15 13 14 15 15 14 14 14 14 14 15
8 7 6 6 9 9 8 9 9 10 9 9 10 10 10 11 11 12 11 10 11 8 9 7 12 11 13 10 10 13 11 11 12 12 14 14 16 14 13 13 14 15 15 16 15
3 3 5 7 8 9 9 8 8 8 8 9 10 10 10 9 9 8 7 7 7 8 9 9 11 13 15 11 12 15 13 12 13 13 13 15 15 13 15 15 15 15 15 16 16